Location: Cajon Junction
(34.3117°N, 117.4748°W)
Time: 04:42:27
(UTC+00:00)

Cosmos 2315 Rocket - Pass Details

Date: 18 April 2024
Orbit: 965 x 1002 km, 82.9° (Epoch: 28 May)

Event Time Altitude Azimuth Distance (km) Brightness Sun altitude
Rises 12:34:06 0° 348° (NNW) 3,660 7.1 -8.7°
Reaches altitude 10° 12:36:39 10° 344° (NNW) 2,709 6.4 -8.3°
Maximum altitude 12:42:39 54° 269° (W) 1,161 4.1 -7.1°
Drops below altitude 10° 12:48:38 10° 193° (SSW) 2,701 6.0 -5.9°
Sets 12:51:11 0° 189° (S) 3,648 6.7 -5.4°
